| time (UTC) | temp C | wind direction | speed KPH | gust KPH | rain 1hr cm | rain 24hr cm | rain mn cm | humidity % | barometer mb |
| 20260505153102 | 25 | 74 | 17.7 | 32.2 | 0.00 | 0.00 | 0.00 | 49 | 989.7 |
| 20260505151839 | 25 | 48 | 9.7 | 22.5 | 0.00 | 0.00 | 0.00 | 52 | 989.7 |
| 20260505151502 | 24 | 89 | 11.3 | 24.1 | 0.00 | 0.00 | 0.00 | 52 | 989.7 |
| 20260505150809 | 24 | 53 | 9.7 | 22.5 | 0.00 | 0.00 | 0.00 | 50 | 989.8 |
| 20260505150104 | 23 | 47 | 11.3 | 24.1 | 0.00 | 0.00 | 0.00 | 52 | 989.8 |
| 20260505140130 | 22 | 33 | 8.0 | 19.3 | 0.00 | 0.00 | 0.00 | 57 | 990.3 |
| 20260505124729 | 18 | 17 | 3.2 | 11.3 | 0.00 | 0.00 | 0.00 | 71 | 990.8 |
| 20260505124506 | 18 | 35 | 3.2 | 12.9 | 0.00 | 0.00 | 0.00 | 71 | 990.8 |
| 20260505123744 | 18 | 15 | 1.6 | 9.7 | 0.00 | 0.00 | 0.00 | 72 | 990.8 |
| 20260505123003 | 17 | 44 | 1.6 | 8.0 | 0.00 | 0.00 | 0.00 | 74 | 990.9 |
| 20260505122720 | 17 | 88 | 3.2 | 9.7 | 0.00 | 0.00 | 0.00 | 74 | 990.8 |
| 20260505121704 | 16 | 5 | 1.6 | 4.8 | 0.00 | 0.00 | 0.00 | 74 | 990.8 |
| 20260505121603 | 16 | 78 | 3.2 | 9.7 | 0.00 | 0.00 | 0.00 | 75 | 990.8 |
| 20260505120714 | 16 | 30 | 0.0 | 4.8 | 0.00 | 0.00 | 0.00 | 77 | 990.6 |
| 20260505120117 | 15 | 5 | 0.0 | 6.4 | 0.00 | 0.00 | 0.00 | 78 | 990.6 |
| 20260505115731 | 15 | 5 | 0.0 | 3.2 | 0.00 | 0.00 | 0.00 | 78 | 990.4 |
| 20260505114753 | 14 | 300 | 0.0 | 0.0 | 0.00 | 0.00 | 0.00 | 83 | 990.5 |
| 20260505114603 | 13 | 300 | 0.0 | 1.6 | 0.00 | 0.00 | 0.00 | 83 | 990.5 |
| 20260505113811 | 13 | 300 | 0.0 | 0.0 | 0.00 | 0.00 | 0.00 | 86 | 990.4 |
| 20260505113107 | 12 | 300 | 0.0 | 3.2 | 0.00 | 0.00 | 0.00 | 87 | 990.4 |
| 20260505112744 | 12 | 300 | 0.0 | 1.6 | 0.00 | 0.00 | 0.00 | 87 | 990.3 |
| 20260505111748 | 12 | 300 | 0.0 | 1.6 | 0.00 | 0.00 | 0.00 | 87 | 990.3 |
| 20260505111608 | 12 | 300 | 0.0 | 3.2 | 0.00 | 0.00 | 0.00 | 86 | 990.3 |
| 20260505110813 | 12 | 300 | 0.0 | 1.6 | 0.00 | 0.00 | 0.00 | 86 | 990.3 |
| 20260505101900 | 11 | 301 | 1.6 | 3.2 | 0.00 | 0.00 | 0.00 | 83 | 989.7 |
| 20260505101605 | 11 | 301 | 3.2 | 4.8 | 0.00 | 0.00 | 0.00 | 83 | 989.7 |
| 20260505100923 | 12 | 301 | 0.0 | 0.0 | 0.00 | 0.00 | 0.00 | 81 | 989.7 |
| 20260505095859 | 12 | 301 | 0.0 | 0.0 | 0.00 | 0.00 | 0.00 | 80 | 989.5 |
| 20260505094827 | 13 | 301 | 0.0 | 0.0 | 0.00 | 0.00 | 0.00 | 79 | 989.6 |
| 20260505094503 | 12 | 301 | 0.0 | 0.0 | 0.00 | 0.00 | 0.00 | 78 | 989.6 |
| 20260505093841 | 13 | 301 | 0.0 | 0.0 | 0.00 | 0.00 | 0.00 | 78 | 989.6 |
| 20260505093103 | 13 | 301 | 0.0 | 4.8 | 0.00 | 0.00 | 0.00 | 78 | 989.5 |
| 20260505092810 | 13 | 301 | 1.6 | 3.2 | 0.00 | 0.00 | 0.00 | 78 | 989.4 |
| 20260505091819 | 13 | 301 | 1.6 | 4.8 | 0.00 | 0.00 | 0.00 | 77 | 989.5 |
| 20260505091552 | 13 | 301 | 1.6 | 6.4 | 0.00 | 0.00 | 0.00 | 77 | 989.6 |
| 20260505090802 | 13 | 301 | 1.6 | 4.8 | 0.00 | 0.00 | 0.00 | 76 | 989.4 |
| 20260505090104 | 13 | 301 | 1.6 | 4.8 | 0.00 | 0.00 | 0.00 | 75 | 989.3 |
| 20260505084607 | 13 | 301 | 1.6 | 3.2 | 0.00 | 0.00 | 0.00 | 74 | 989.4 |
| 20260505084604 | 14 | 301 | 0.0 | 1.6 | 0.00 | 0.00 | 0.00 | 74 | 989.3 |
| 20260505083547 | 14 | 301 | 0.0 | 3.2 | 0.00 | 0.00 | 0.00 | 74 | 989.2 |
| 20260505083002 | 14 | 301 | 1.6 | 4.8 | 0.00 | 0.00 | 0.00 | 74 | 989.3 |
| 20260505082517 | 14 | 301 | 0.0 | 3.2 | 0.00 | 0.00 | 0.00 | 74 | 989.2 |
| 20260505081502 | 14 | 301 | 1.6 | 3.2 | 0.00 | 0.00 | 0.00 | 73 | 989.2 |
| 20260505081444 | 14 | 301 | 0.0 | 3.2 | 0.00 | 0.00 | 0.00 | 73 | 989.2 |
| 20260505080422 | 15 | 301 | 1.6 | 3.2 | 0.00 | 0.00 | 0.00 | 73 | 989.2 |
| 20260505080100 | 14 | 301 | 1.6 | 4.8 | 0.00 | 0.00 | 0.00 | 73 | 989.2 |
| 20260505075351 | 15 | 301 | 0.0 | 1.6 | 0.00 | 0.00 | 0.00 | 72 | 989.2 |
| 20260505074603 | 15 | 301 | 0.0 | 3.2 | 0.00 | 0.00 | 0.00 | 71 | 989.2 |
| 20260505074347 | 15 | 301 | 0.0 | 1.6 | 0.00 | 0.00 | 0.00 | 71 | 989.1 |
| 20260505073339 | 15 | 301 | 0.0 | 0.0 | 0.00 | 0.00 | 0.00 | 71 | 989.0 |
| 20260505073005 | 15 | 301 | 0.0 | 3.2 | 0.00 | 0.00 | 0.00 | 71 | 989.0 |
| 20260505072306 | 15 | 301 | 0.0 | 3.2 | 0.00 | 0.00 | 0.00 | 71 | 989.0 |
| 20260505071502 | 15 | 301 | 1.6 | 4.8 | 0.00 | 0.00 | 0.00 | 71 | 989.0 |
| 20260505071329 | 15 | 301 | 0.0 | 3.2 | 0.00 | 0.00 | 0.00 | 71 | 988.9 |
| 20260505070326 | 15 | 301 | 1.6 | 3.2 | 0.00 | 0.00 | 0.00 | 71 | 988.9 |
| 20260505070107 | 15 | 301 | 1.6 | 4.8 | 0.00 | 0.00 | 0.00 | 71 | 989.0 |
| 20260505065259 | 15 | 301 | 1.6 | 3.2 | 0.00 | 0.00 | 0.00 | 71 | 989.1 |
| 20260505064602 | 15 | 301 | 3.2 | 4.8 | 0.00 | 0.00 | 0.00 | 71 | 989.2 |
| 20260505063153 | 15 | 301 | 0.0 | 1.6 | 0.00 | 0.00 | 0.00 | 70 | 989.2 |
| 20260505063003 | 15 | 301 | 0.0 | 3.2 | 0.00 | 0.00 | 0.00 | 69 | 989.3 |
| 20260505062129 | 15 | 301 | 0.0 | 0.0 | 0.00 | 0.00 | 0.00 | 69 | 989.3 |
| 20260505061630 | 15 | 301 | 0.0 | 0.0 | 0.00 | 0.00 | 0.00 | 68 | 989.4 |
| 20260505061106 | 15 | 301 | 0.0 | 0.0 | 0.00 | 0.00 | 0.00 | 68 | 989.4 |
| 20260505060039 | 15 | 301 | 0.0 | 0.0 | 0.00 | 0.00 | 0.00 | 68 | 989.3 |
| 20260505060003 | 15 | 301 | 0.0 | 3.2 | 0.00 | 0.00 | 0.00 | 68 | 989.4 |
| 20260505055023 | 15 | 301 | 1.6 | 4.8 | 0.00 | 0.00 | 0.00 | 68 | 989.4 |
| 20260505054606 | 15 | 301 | 1.6 | 6.4 | 0.00 | 0.00 | 0.00 | 68 | 989.4 |
| 20260505054024 | 15 | 301 | 1.6 | 4.8 | 0.00 | 0.00 | 0.00 | 68 | 989.4 |
| 20260505053025 | 15 | 311 | 0.0 | 3.2 | 0.00 | 0.00 | 0.00 | 68 | 989.4 |
| 20260505053007 | 15 | 311 | 1.6 | 3.2 | 0.00 | 0.00 | 0.00 | 68 | 989.4 |
| 20260505052041 | 15 | 311 | 1.6 | 3.2 | 0.00 | 0.00 | 0.00 | 68 | 989.3 |
| 20260505051503 | 15 | 303 | 3.2 | 4.8 | 0.00 | 0.00 | 0.00 | 68 | 989.3 |
| 20260505041739 | 15 | 313 | 0.0 | 3.2 | 0.00 | 0.00 | 0.00 | 68 | 989.1 |
| 20260505040719 | 15 | 313 | 0.0 | 3.2 | 0.00 | 0.00 | 0.00 | 66 | 989.1 |
| 20260505040104 | 15 | 313 | 1.6 | 4.8 | 0.00 | 0.00 | 0.00 | 66 | 989.1 |
| 20260505035730 | 16 | 0 | 0.0 | 1.6 | 0.00 | 0.00 | 0.00 | 65 | 989.0 |
| 20260505034751 | 16 | 0 | 0.0 | 1.6 | 0.00 | 0.00 | 0.00 | 63 | 989.1 |
| 20260505034658 | 16 | 5 | 0.0 | 3.2 | 0.00 | 0.00 | 0.00 | 63 | 989.1 |
| 20260505033729 | 16 | 5 | 0.0 | 0.0 | 0.00 | 0.00 | 0.00 | 61 | 989.0 |
| 20260505033005 | 16 | 9 | 0.0 | 3.2 | 0.00 | 0.00 | 0.00 | 60 | 989.1 |
| 20260505032702 | 17 | 9 | 0.0 | 4.8 | 0.00 | 0.00 | 0.00 | 60 | 988.9 |
| 20260505031705 | 17 | 9 | 0.0 | 4.8 | 0.00 | 0.00 | 0.00 | 59 | 989.0 |
| 20260505031602 | 17 | 360 | 0.0 | 3.2 | 0.00 | 0.00 | 0.00 | 59 | 989.0 |
| 20260505030706 | 17 | 5 | 1.6 | 6.4 | 0.00 | 0.00 | 0.00 | 59 | 989.0 |
| 20260505030008 | 17 | 355 | 1.6 | 9.7 | 0.00 | 0.00 | 0.00 | 58 | 989.0 |
| 20260505025709 | 17 | 0 | 3.2 | 14.5 | 0.00 | 0.00 | 0.00 | 58 | 988.9 |
| 20260505024604 | 17 | 5 | 3.2 | 16.1 | 0.00 | 0.00 | 0.00 | 58 | 988.9 |
| 20260505023627 | 17 | 344 | 3.2 | 12.9 | 0.00 | 0.00 | 0.00 | 59 | 988.8 |
| 20260505023003 | 17 | 5 | 4.8 | 14.5 | 0.00 | 0.00 | 0.00 | 58 | 988.9 |
| 20260505022625 | 17 | 5 | 3.2 | 12.9 | 0.00 | 0.00 | 0.00 | 58 | 988.7 |
| 20260505021640 | 17 | 0 | 3.2 | 8.0 | 0.00 | 0.00 | 0.00 | 57 | 988.9 |
| 20260505021504 | 17 | 329 | 3.2 | 9.7 | 0.00 | 0.00 | 0.00 | 58 | 989.0 |
| 20260505015507 | 17 | 36 | 4.8 | 20.9 | 0.00 | 0.00 | 0.00 | 57 | 989.0 |
| 20260505014610 | 17 | 360 | 8.0 | 22.5 | 0.00 | 0.00 | 0.00 | 56 | 988.9 |
| 20260505014525 | 18 | 30 | 6.4 | 20.9 | 0.00 | 0.00 | 0.00 | 57 | 988.8 |
| 20260505013507 | 18 | 9 | 6.4 | 12.9 | 0.00 | 0.00 | 0.00 | 56 | 989.1 |
| 20260505013004 | 17 | 26 | 8.0 | 14.5 | 0.00 | 0.00 | 0.00 | 56 | 989.1 |
| 20260505012449 | 18 | 0 | 4.8 | 14.5 | 0.00 | 0.00 | 0.00 | 56 | 989.0 |
| 20260505011619 | 17 | 344 | 6.4 | 16.1 | 0.00 | 0.00 | 0.00 | 55 | 989.0 |
| 20260505011432 | 18 | 355 | 3.2 | 14.5 | 0.00 | 0.00 | 0.00 | 55 | 988.9 |
| 20260505010420 | 18 | 14 | 3.2 | 12.9 | 0.00 | 0.00 | 0.00 | 55 | 988.7 |
| 20260505010002 | 18 | 311 | 3.2 | 14.5 | 0.00 | 0.00 | 0.00 | 54 | 988.7 |
| 20260505004506 | 18 | 349 | 4.8 | 12.9 | 0.00 | 0.00 | 0.00 | 53 | 988.5 |
| 20260505004247 | 18 | 344 | 3.2 | 12.9 | 0.00 | 0.00 | 0.00 | 54 | 988.5 |
| 20260505003214 | 19 | 327 | 4.8 | 17.7 | 0.00 | 0.00 | 0.00 | 53 | 988.5 |
| 20260505003002 | 18 | 9 | 8.0 | 14.5 | 0.00 | 0.00 | 0.00 | 53 | 988.5 |
| 20260505002204 | 19 | 355 | 6.4 | 17.7 | 0.00 | 0.00 | 0.00 | 52 | 988.4 |
| 20260505001604 | 19 | 355 | 6.4 | 16.1 | 0.00 | 0.00 | 0.00 | 52 | 988.5 |
| 20260505001159 | 20 | 14 | 6.4 | 16.1 | 0.00 | 0.00 | 0.00 | 51 | 988.3 |
| 20260505000134 | 20 | 5 | 6.4 | 19.3 | 0.00 | 0.00 | 0.00 | 50 | 988.3 |
| 20260504235135 | 21 | 335 | 6.4 | 19.3 | 0.00 | 0.00 | 0.00 | 48 | 988.1 |
| 20260504234503 | 21 | 5 | 6.4 | 14.5 | 0.00 | 0.00 | 0.00 | 47 | 988.2 |
| 20260504234133 | 21 | 5 | 4.8 | 14.5 | 0.00 | 0.00 | 0.00 | 47 | 988.0 |
| 20260504233131 | 22 | 51 | 3.2 | 14.5 | 0.00 | 0.00 | 0.00 | 47 | 988.0 |
| 20260504233105 | 21 | 40 | 4.8 | 17.7 | 0.00 | 0.00 | 0.00 | 47 | 988.0 |
| 20260504232108 | 22 | 42 | 4.8 | 14.5 | 0.00 | 0.00 | 0.00 | 46 | 987.9 |
| 20260504231602 | 22 | 5 | 8.0 | 16.1 | 0.00 | 0.00 | 0.00 | 45 | 988.0 |
| 20260504231048 | 22 | 78 | 4.8 | 14.5 | 0.00 | 0.00 | 0.00 | 46 | 988.0 |
| 20260504230100 | 22 | 32 | 4.8 | 14.5 | 0.00 | 0.00 | 0.00 | 44 | 988.1 |
| 20260504230002 | 22 | 14 | 3.2 | 19.3 | 0.00 | 0.00 | 0.00 | 45 | 988.1 |
| 20260504225108 | 22 | 47 | 4.8 | 16.1 | 0.00 | 0.00 | 0.00 | 44 | 988.0 |
| 20260504224113 | 22 | 74 | 6.4 | 17.7 | 0.00 | 0.00 | 0.00 | 44 | 988.1 |
| 20260504223110 | 23 | 74 | 8.0 | 20.9 | 0.00 | 0.00 | 0.00 | 43 | 988.2 |
| 20260504223002 | 22 | 67 | 9.7 | 20.9 | 0.00 | 0.00 | 0.00 | 43 | 988.3 |
| 20260504222133 | 23 | 67 | 8.0 | 20.9 | 0.00 | 0.00 | 0.00 | 41 | 988.2 |
| 20260504221602 | 23 | 53 | 8.0 | 20.9 | 0.00 | 0.00 | 0.00 | 42 | 988.2 |
| 20260504221147 | 23 | 28 | 8.0 | 19.3 | 0.00 | 0.00 | 0.00 | 42 | 988.1 |
| 20260504220151 | 23 | 58 | 8.0 | 20.9 | 0.00 | 0.00 | 0.00 | 42 | 988.2 |
| 20260504215155 | 23 | 86 | 6.4 | 20.9 | 0.00 | 0.00 | 0.00 | 42 | 988.2 |
| 20260504214504 | 23 | 5 | 4.8 | 20.9 | 0.00 | 0.00 | 0.00 | 45 | 988.3 |
| 20260504214205 | 23 | 55 | 8.0 | 20.9 | 0.00 | 0.00 | 0.00 | 42 | 988.2 |
| 20260504213225 | 23 | 40 | 8.0 | 20.9 | 0.00 | 0.00 | 0.00 | 41 | 988.2 |
| 20260504213112 | 23 | 32 | 11.3 | 22.5 | 0.00 | 0.00 | 0.00 | 41 | 988.3 |
| 20260504212214 | 23 | 63 | 8.0 | 22.5 | 0.00 | 0.00 | 0.00 | 40 | 988.2 |
| 20260504211700 | 23 | 64 | 8.0 | 20.9 | 0.00 | 0.00 | 0.00 | 41 | 988.3 |
| 20260504211202 | 23 | 80 | 9.7 | 22.5 | 0.00 | 0.00 | 0.00 | 41 | 988.2 |
| 20260504210208 | 23 | 60 | 9.7 | 20.9 | 0.00 | 0.00 | 0.00 | 41 | 988.2 |
| 20260504210004 | 23 | 65 | 8.0 | 25.7 | 0.00 | 0.00 | 0.00 | 41 | 988.3 |
| 20260504205144 | 23 | 104 | 8.0 | 20.9 | 0.00 | 0.00 | 0.00 | 43 | 988.3 |
| 20260504204502 | 23 | 59 | 11.3 | 24.1 | 0.00 | 0.00 | 0.00 | 42 | 988.4 |
| 20260504204159 | 23 | 56 | 8.0 | 17.7 | 0.00 | 0.00 | 0.00 | 43 | 988.3 |
| 20260504203220 | 23 | 28 | 8.0 | 19.3 | 0.00 | 0.00 | 0.00 | 42 | 988.4 |
| 20260504203003 | 23 | 54 | 9.7 | 20.9 | 0.00 | 0.00 | 0.00 | 43 | 988.6 |
| 20260504202152 | 23 | 46 | 9.7 | 27.4 | 0.00 | 0.00 | 0.00 | 41 | 988.5 |
| 20260504201602 | 22 | 49 | 11.3 | 29.0 | 0.00 | 0.00 | 0.00 | 40 | 988.7 |
| 20260504201215 | 23 | 65 | 11.3 | 27.4 | 0.00 | 0.00 | 0.00 | 41 | 988.7 |
| 20260504200148 | 23 | 74 | 8.0 | 24.1 | 0.00 | 0.00 | 0.00 | 42 | 988.8 |
| 20260504200006 | 23 | 72 | 9.7 | 22.5 | 0.00 | 0.00 | 0.00 | 42 | 989.0 |
| 20260504195130 | 23 | 107 | 11.3 | 27.4 | 0.00 | 0.00 | 0.00 | 43 | 989.0 |
| 20260504194505 | 22 | 79 | 9.7 | 29.0 | 0.00 | 0.00 | 0.00 | 43 | 989.2 |
| 20260504193005 | 22 | 60 | 12.9 | 30.6 | 0.00 | 0.00 | 0.00 | 43 | 989.3 |
| 20260504193003 | 22 | 105 | 11.3 | 32.2 | 0.00 | 0.00 | 0.00 | 43 | 989.4 |
| 20260504192012 | 22 | 88 | 8.0 | 22.5 | 0.00 | 0.00 | 0.00 | 44 | 989.4 |
| 20260504191603 | 22 | 355 | 8.0 | 20.9 | 0.00 | 0.00 | 0.00 | 45 | 989.5 |
| 20260504190109 | 22 | 69 | 12.9 | 30.6 | 0.00 | 0.00 | 0.00 | 43 | 989.7 |
| 20260504185931 | 22 | 18 | 9.7 | 29.0 | 0.00 | 0.00 | 0.00 | 44 | 989.7 |
| 20260504184602 | 21 | 61 | 14.5 | 27.4 | 0.00 | 0.00 | 0.00 | 45 | 989.9 |
| 20260504183855 | 22 | 96 | 9.7 | 24.1 | 0.00 | 0.00 | 0.00 | 42 | 990.0 |
| 20260504183003 | 22 | 30 | 12.9 | 25.7 | 0.00 | 0.00 | 0.00 | 42 | 990.2 |
| 20260504182848 | 22 | 70 | 8.0 | 24.1 | 0.00 | 0.00 | 0.00 | 43 | 990.1 |
| 20260504181503 | 21 | 299 | 9.7 | 22.5 | 0.00 | 0.00 | 0.00 | 43 | 990.5 |
| 20260504180706 | 21 | 67 | 11.3 | 24.1 | 0.00 | 0.00 | 0.00 | 45 | 990.5 |
| 20260504180141 | 21 | 85 | 14.5 | 25.7 | 0.00 | 0.00 | 0.00 | 44 | 990.7 |
| 20260504175711 | 21 | 51 | 11.3 | 24.1 | 0.00 | 0.00 | 0.00 | 44 | 990.7 |
| 20260504174700 | 21 | 121 | 11.3 | 24.1 | 0.00 | 0.00 | 0.00 | 43 | 990.7 |
| 20260504173640 | 21 | 63 | 9.7 | 24.1 | 0.00 | 0.00 | 0.00 | 46 | 990.7 |
| 20260504173003 | 21 | 61 | 9.7 | 25.7 | 0.00 | 0.00 | 0.00 | 45 | 990.8 |
| 20260504172648 | 21 | 36 | 9.7 | 24.1 | 0.00 | 0.00 | 0.00 | 45 | 990.8 |
| 20260504171605 | 21 | 33 | 12.9 | 20.9 | 0.00 | 0.00 | 0.00 | 45 | 991.1 |
| 20260504170508 | 20 | 74 | 9.7 | 20.9 | 0.00 | 0.00 | 0.00 | 47 | 991.3 |
| 20260504170105 | 20 | 40 | 11.3 | 24.1 | 0.00 | 0.00 | 0.00 | 44 | 991.3 |
| 20260504160401 | 19 | 31 | 9.7 | 24.1 | 0.00 | 0.00 | 0.00 | 46 | 992.0 |
| 20260504160104 | 19 | 130 | 11.3 | 19.3 | 0.00 | 0.00 | 0.00 | 46 | 992.0 |